Latest Weather Observations for Southern Cross Airport

IDW60801

Issued at 11:32 am WST Saturday 20 December 2014 (issued every 30 minutes, with the page automatically refreshed every 10 minutes)

About weather observations | Map of weather stations | Latest weather observations for WA | Other Formats
Station Details ID: 012320 Name: SOUTHERN CROSS AIRFIELD Lat: -31.24 Lon: 119.36 Height: 347.4 m
Data from the previous 72 hours. | See also: Recent months at Southern Cross Airport
Date/Time
WST
Temp
°C
App
Temp
°C
Dew
Point
Rel
Hum
%
Delta-T
°C
Wind Press
QNH
hPa
Press
MSL
hPa
Rain
since 9 am
mm
Dir
 
Spd
km/h
Gust
km/h
Spd
kts
Gust
kts
20/11:30am 34.9 32.8 17.2 35 11.5 NW 24 35 13 19 1006.2 1004.4 0.0
20/11:00am 33.2 30.5 16.5 36 10.7 NNW 26 37 14 20 1006.7 1004.9 0.0
20/10:30am 32.2 29.5 16.5 39 10.0 NW 26 39 14 21 1007.2 1005.4 0.0
20/10:00am 32.0 29.5 17.1 41 9.6 NNW 26 33 14 18 1007.6 1005.8 0.0
20/09:30am 31.0 28.2 17.3 43 8.8 N 28 41 15 22 1008.1 1006.3 0.0
20/09:00am 29.7 25.9 16.8 45 8.2 N 32 43 17 23 1008.4 1006.6 5.2
20/08:30am 28.6 27.0 18.4 54 6.6 N 24 30 13 16 1008.9 1007.1 5.2
20/08:00am 27.1 25.0 18.1 58 5.8 NNE 26 35 14 19 1009.3 1007.5 5.2
20/07:30am 26.1 24.7 18.0 61 5.2 N 22 30 12 16 1009.4 1007.6 5.2
20/07:00am 25.6 24.0 18.3 64 4.7 N 24 32 13 17 1009.6 1007.8 5.2
20/06:30am 24.3 24.1 18.5 70 3.7 NNE 17 22 9 12 1009.6 1007.8 5.2
20/06:00am 23.6 23.7 18.3 72 3.4 NNE 15 19 8 10 1009.5 1007.7 5.2
20/05:30am 22.8 23.6 18.1 75 3.0 NNE 11 15 6 8 1009.4 1007.6 5.2
20/05:00am 22.4 23.1 18.0 76 2.8 NNE 11 13 6 7 1009.2 1007.4 5.2
20/04:30am 22.7 23.6 17.6 73 3.2 NNE 9 11 5 6 1009.5 1007.7 5.2
20/04:00am 23.1 23.1 17.3 70 3.6 N 13 17 7 9 1009.2 1007.4 5.2
20/03:30am 23.1 22.3 17.1 69 3.7 N 17 22 9 12 1009.2 1007.4 5.2
20/03:00am 22.7 21.8 16.9 70 3.6 N 17 20 9 11 1009.2 1007.4 5.2
20/02:30am 22.7 21.6 17.4 72 3.3 NNE 19 22 10 12 1009.2 1007.4 5.2
20/02:00am 22.9 21.5 17.1 70 3.6 NE 20 28 11 15 1009.5 1007.7 5.2
20/01:30am 22.7 21.1 17.4 72 3.3 NE 22 28 12 15 1009.7 1007.9 5.2
20/01:00am 22.9 21.4 17.6 72 3.3 NE 22 26 12 14 1010.0 1008.2 5.2
20/12:30am 23.3 21.6 17.3 69 3.8 ENE 22 30 12 16 1010.8 1009.0 5.2
20/12:00am 21.7 21.8 19.1 85 1.7 SSE 17 20 9 11 1012.4 1010.6 5.0
 
Date/Time
WST
Temp
°C
App
Temp
°C
Dew
Point
Rel
Hum
%
Delta-T
°C
Wind Press
QNH
hPa
Press
MSL
hPa
Rain
since 9 am
mm
Dir
 
Spd
km/h
Gust
km/h
Spd
kts
Gust
kts
19/11:39pm 23.3 21.8 18.6 75 3.0 WSW 24 33 13 18 1014.0 1012.3 1.8
19/11:30pm 23.5 24.4 18.4 73 3.3 ESE 11 19 6 10 1011.9 1010.1 1.8
19/11:00pm 23.0 23.9 18.5 76 2.9 ENE 11 13 6 7 1011.7 1009.9 1.8
19/10:30pm 23.6 23.9 18.0 71 3.6 E 13 17 7 9 1012.0 1010.2 1.8
19/10:00pm 24.0 24.0 18.9 73 3.3 S 17 19 9 10 1012.5 1010.7 1.8
19/09:30pm 23.6 24.5 19.3 77 2.8 SSW 13 17 7 9 1013.0 1011.2 1.8
19/09:00pm 24.5 24.3 18.4 69 3.9 S 17 20 9 11 1012.3 1010.5 1.8
19/08:30pm 23.9 24.9 19.4 76 2.9 ENE 13 26 7 14 1012.5 1010.7 1.8
19/08:00pm 23.6 24.7 19.7 79 2.5 SE 13 20 7 11 1013.5 1011.7 1.4
19/07:30pm 27.6 26.4 16.2 49 7.1 NNW 17 26 9 14 1013.5 1011.7 0.0
19/07:24pm 27.8 25.5 15.8 48 7.5 N 22 30 12 16 1013.2 1011.4 0.0
19/07:00pm 26.8 19.3 16.1 52 6.7 N 50 70 27 38 1011.1 1009.3 0.0
19/06:57pm 27.1 19.3 16.1 51 6.9 N 52 70 28 38 1010.8 1009.0 0.0
19/06:53pm 28.3 20.9 15.2 44 8.1 N 48 70 26 38 1010.5 1008.7 0.0
19/06:46pm 33.8 28.3 9.1 22 14.2 N 28 61 15 33 1009.7 1007.9 0.0
19/06:30pm 35.7 31.4 5.1 15 16.7 E 17 24 9 13 1008.8 1007.0 0.0
19/06:00pm 36.0 33.4 6.2 16 16.6 ENE 9 15 5 8 1008.3 1006.5 0.0
19/05:30pm 36.1 32.4 6.3 16 16.6 SE 15 35 8 19 1008.4 1006.6 0.0
19/05:00pm 36.4 32.2 5.6 15 17.0 NE 17 22 9 12 1008.4 1006.6 0.0
19/04:30pm 36.8 32.6 5.9 15 17.2 E 17 22 9 12 1008.3 1006.5 0.0
19/04:00pm 37.3 33.4 5.3 14 17.7 ESE 15 32 8 17 1009.0 1007.2 0.0
19/03:30pm 36.3 32.8 5.5 15 17.0 NE 13 19 7 10 1009.5 1007.7 0.0
19/03:00pm 38.6 33.0 5.3 13 18.5 ENE 24 39 13 21 1010.0 1008.2 0.0
19/02:30pm 37.0 33.3 6.1 15 17.2 NE 15 26 8 14 1010.5 1008.7 0.0
19/02:00pm 36.5 32.1 4.7 14 17.3 NNE 17 28 9 15 1011.2 1009.5 0.0
19/01:30pm 37.5 33.3 5.5 14 17.7 ENE 17 28 9 15 1011.9 1010.1 0.0
19/01:00pm 35.8 31.3 4.2 14 17.0 NE 17 32 9 17 1012.5 1010.7 0.0
19/12:30pm 35.4 30.8 6.6 17 16.1 NNE 20 35 11 19 1013.1 1011.3 0.0
19/12:00pm 35.3 30.7 8.2 19 15.5 NNE 22 35 12 19 1013.7 1011.9 0.0
19/11:30am 34.6 29.3 8.4 20 15.0 NE 26 37 14 20 1014.2 1012.5 0.0
19/11:00am 33.5 28.1 8.2 21 14.3 NE 26 41 14 22 1014.5 1012.8 0.0
19/10:30am 32.2 26.8 7.8 22 13.7 NE 26 37 14 20 1015.1 1013.3 0.0
19/10:00am 31.1 26.0 7.5 23 13.1 NE 24 37 13 20 1015.6 1013.8 0.0
19/09:30am 29.3 24.2 7.8 26 11.9 NE 24 35 13 19 1015.9 1014.1 0.0
19/09:00am 28.1 22.7 7.9 28 11.1 ENE 26 33 14 18 1016.3 1014.5 0.0
19/08:30am 27.0 21.6 8.0 30 10.4 ENE 26 33 14 18 1016.6 1014.9 0.0
19/08:00am 25.8 20.5 8.3 33 9.5 ENE 26 35 14 19 1016.7 1015.0 0.0
19/07:30am 24.4 19.5 8.4 36 8.7 ENE 24 32 13 17 1016.8 1015.1 0.0
19/07:00am 23.0 18.4 8.3 39 7.9 ENE 22 32 12 17 1016.8 1015.1 0.0
19/06:30am 21.6 17.5 8.8 44 6.9 ENE 20 32 11 17 1016.5 1014.8 0.0
19/06:00am 20.3 16.4 8.6 47 6.2 E 19 26 10 14 1016.3 1014.5 0.0
19/05:30am 19.6 16.4 8.6 49 5.8 E 15 22 8 12 1016.1 1014.3 0.0
19/05:00am 19.0 15.8 8.6 51 5.5 E 15 20 8 11 1015.9 1014.1 0.0
19/04:30am 19.2 16.4 8.5 50 5.7 E 13 20 7 11 1015.6 1013.8 0.0
19/04:00am 19.4 16.6 8.4 49 5.8 E 13 20 7 11 1015.4 1013.6 0.0
19/03:30am 19.7 16.1 8.4 48 6.0 E 17 26 9 14 1015.2 1013.4 0.0
19/03:00am 19.9 15.8 8.6 48 6.0 E 20 28 11 15 1015.0 1013.2 0.0
19/02:30am 20.1 15.9 8.4 47 6.2 ESE 20 33 11 18 1015.0 1013.2 0.0
19/02:00am 20.0 15.8 8.4 47 6.1 ESE 20 33 11 18 1015.1 1013.3 0.0
19/01:30am 20.3 16.1 8.3 46 6.4 ESE 20 30 11 16 1015.1 1013.3 0.0
19/01:00am 20.9 15.5 7.9 43 6.9 ESE 26 37 14 20 1015.0 1013.2 0.0
19/12:30am 21.5 15.4 4.6 33 8.4 ESE 26 35 14 19 1015.2 1013.4 0.0
19/12:00am 22.5 16.5 -1.6 20 10.7 SE 20 26 11 14 1015.4 1013.6 0.0
 
Date/Time
WST
Temp
°C
App
Temp
°C
Dew
Point
Rel
Hum
%
Delta-T
°C
Wind Press
QNH
hPa
Press
MSL
hPa
Rain
since 9 am
mm
Dir
 
Spd
km/h
Gust
km/h
Spd
kts
Gust
kts
18/11:30pm 23.4 17.9 -2.2 18 11.4 ESE 17 24 9 13 1015.2 1013.4 0.0
18/11:00pm 24.0 18.2 -1.8 18 11.6 ESE 19 26 10 14 1015.2 1013.4 0.0
18/10:30pm 24.5 18.4 -2.1 17 11.9 ESE 20 28 11 15 1015.3 1013.5 0.0
18/10:00pm 25.1 19.2 -2.5 16 12.3 ESE 19 28 10 15 1015.3 1013.5 0.0
18/09:30pm 25.3 19.3 -3.2 15 12.6 ESE 19 24 10 13 1015.3 1013.5 0.0
18/09:00pm 24.9 19.6 -3.5 15 12.4 SE 15 19 8 10 1015.1 1013.3 0.0
18/08:30pm 26.3 20.7 -3.3 14 13.2 SE 17 19 9 10 1014.8 1013.0 0.0
18/08:00pm 27.4 22.1 -3.4 13 13.8 SE 15 19 8 10 1014.4 1012.7 0.0
18/07:30pm 28.4 23.2 -2.6 13 14.2 ESE 15 17 8 9 1014.3 1012.6 0.0
18/07:00pm 30.1 25.3 -2.4 12 15.1 ESE 13 20 7 11 1014.1 1012.4 0.0
18/06:30pm 31.2 26.8 -2.7 11 15.8 ESE 11 19 6 10 1013.8 1012.1 0.0
18/06:00pm 31.4 27.4 -2.6 11 15.9 ESE 9 19 5 10 1013.6 1011.8 0.0
18/05:30pm 31.8 27.2 -1.1 12 15.9 E 13 20 7 11 1013.3 1011.5 0.0
18/05:00pm 31.6 27.0 -1.2 12 15.8 E 13 26 7 14 1013.2 1011.4 0.0
18/04:30pm 31.8 26.4 -1.1 12 15.9 SE 17 26 9 14 1013.3 1011.5 0.0
18/04:00pm 31.3 26.0 -0.4 13 15.4 ESE 17 24 9 13 1013.6 1011.8 0.0
18/03:30pm 31.0 26.2 0.4 14 15.1 SSE 15 24 8 13 1013.8 1012.1 0.0
18/03:00pm 30.5 26.6 1.0 15 14.6 ESE 11 22 6 12 1014.1 1012.4 0.0
18/02:30pm 30.3 26.0 0.8 15 14.5 ESE 13 24 7 13 1014.7 1012.9 0.0
18/02:00pm 29.1 25.3 1.6 17 13.6 SE 11 20 6 11 1015.1 1013.3 0.0
18/01:30pm 29.3 25.6 2.5 18 13.5 SE 11 24 6 13 1015.4 1013.6 0.0
18/01:00pm 29.0 23.9 3.1 19 13.2 ESE 19 30 10 16 1015.7 1013.9 0.0
18/12:30pm 27.4 23.5 3.2 21 12.2 SE 13 28 7 15 1016.2 1014.4 0.0
18/12:00pm 27.0 22.2 2.8 21 12.1 ESE 17 32 9 17 1016.6 1014.9 0.0
18/11:30am 26.3 22.0 3.5 23 11.5 ESE 15 24 8 13 1017.0 1015.3 0.0
18/11:00am 24.9 20.1 4.6 27 10.3 ENE 19 26 10 14 1017.3 1015.6 0.0
18/10:30am 24.3 20.0 5.1 29 9.8 ESE 17 26 9 14 1017.7 1015.9 0.0
18/10:00am 23.0 18.7 5.4 32 9.0 E 17 28 9 15 1017.8 1016.0 0.0
18/09:30am 21.9 17.5 6.6 37 7.9 E 19 32 10 17 1018.0 1016.2 0.0
18/09:00am 20.9 16.8 6.4 39 7.4 E 17 24 9 13 1018.2 1016.4 0.0
18/08:30am 19.5 15.3 7.3 45 6.3 E 19 30 10 16 1018.5 1016.7 0.0
18/08:00am 18.2 13.7 7.0 48 5.7 E 20 30 11 16 1018.5 1016.7 0.0
18/07:30am 16.7 11.9 7.4 54 4.7 E 22 32 12 17 1018.7 1016.9 0.0
18/07:00am 15.9 10.7 7.4 57 4.3 E 24 35 13 19 1018.4 1016.6 0.0
18/06:30am 15.0 10.3 7.8 62 3.7 E 22 35 12 19 1018.1 1016.3 0.0
18/06:00am 14.4 10.7 7.9 65 3.3 ESE 17 24 9 13 1017.8 1016.0 0.0
18/05:30am 13.7 10.3 7.5 66 3.1 ESE 15 24 8 13 1017.3 1015.6 0.0
18/05:00am 13.1 9.6 7.1 67 3.0 ESE 15 22 8 12 1017.0 1015.3 0.0
18/04:30am 13.2 9.3 7.2 67 3.0 ESE 17 20 9 11 1016.7 1015.0 0.0
18/04:00am 13.5 10.0 7.1 65 3.2 ESE 15 20 8 11 1016.2 1014.4 0.0
18/03:30am 13.8 9.9 6.9 63 3.4 ESE 17 22 9 12 1015.9 1014.1 0.0
18/03:00am 14.2 9.7 7.0 62 3.6 ESE 20 28 11 15 1015.6 1013.8 0.0
18/02:30am 14.6 9.3 6.9 60 3.8 ESE 24 32 13 17 1015.3 1013.5 0.0
18/02:00am 15.0 8.6 7.1 59 3.9 SE 30 41 16 22 1015.1 1013.3 0.0
18/01:30am 15.6 10.4 7.4 58 4.1 SE 24 32 13 17 1014.8 1013.0 0.0
18/01:00am 16.1 9.9 7.8 58 4.2 SE 30 37 16 20 1014.7 1012.9 0.0
18/12:30am 16.7 9.9 7.9 56 4.5 SE 33 44 18 24 1014.5 1012.8 0.0
18/12:00am 17.4 10.9 8.3 55 4.7 SE 32 41 17 22 1014.3 1012.6 0.0
 
Date/Time
WST
Temp
°C
App
Temp
°C
Dew
Point
Rel
Hum
%
Delta-T
°C
Wind Press
QNH
hPa
Press
MSL
hPa
Rain
since 9 am
mm
Dir
 
Spd
km/h
Gust
km/h
Spd
kts
Gust
kts
17/11:30pm 18.4 12.7 8.4 52 5.2 SE 28 37 15 20 1013.9 1012.2 0.0
17/11:00pm 19.2 12.6 8.5 50 5.7 SE 33 44 18 24 1013.5 1011.7 0.0
17/10:30pm 19.8 12.4 8.5 48 6.0 SE 37 50 20 27 1013.1 1011.3 0.0
17/10:00pm 20.9 12.6 7.9 43 6.9 SE 41 54 22 29 1012.9 1011.1 0.0
17/09:30pm 22.3 14.6 7.3 38 7.9 SE 37 48 20 26 1012.5 1010.7 0.0
17/09:17pm 23.2 15.4 6.5 34 8.7 SSE 37 50 20 27 1012.2 1010.4 0.0
17/09:11pm 24.1 17.0 1.1 22 10.9 S 28 46 15 25 1011.8 1010.0 0.0
17/09:00pm 24.3 18.5 -0.1 20 11.4 S 20 26 11 14 1011.6 1009.8 0.0
17/08:30pm 24.7 19.0 0.3 20 11.5 S 20 24 11 13 1011.3 1009.6 0.0
17/08:00pm 25.6 19.5 0.3 19 12.0 S 22 28 12 15 1011.0 1009.2 0.0
17/07:30pm 26.5 20.9 1.0 19 12.3 S 20 28 11 15 1010.7 1008.9 0.0
17/07:00pm 27.2 20.7 0.1 17 12.9 S 24 32 13 17 1010.3 1008.5 0.0
17/06:30pm 28.1 20.8 -0.1 16 13.5 SSW 28 37 15 20 1009.9 1008.1 0.0
17/06:00pm 28.8 21.7 -1.3 14 14.2 SSW 26 37 14 20 1009.5 1007.7 0.0
17/05:30pm 29.7 22.7 -0.6 14 14.5 S 26 35 14 19 1009.1 1007.3 0.0
17/05:00pm 29.6 21.6 0.2 15 14.3 S 32 41 17 22 1008.7 1006.8 0.0
17/04:30pm 30.7 24.6 0.2 14 14.9 S 22 35 12 19 1008.3 1006.5 0.0
17/04:00pm 30.3 24.1 -0.1 14 14.8 S 22 39 12 21 1008.1 1006.3 0.0
17/03:30pm 30.1 24.5 -0.3 14 14.7 SSE 19 28 10 15 1008.2 1006.4 0.0
17/03:00pm 30.3 25.2 0.8 15 14.6 S 17 30 9 16 1008.3 1006.5 0.0
17/02:30pm 29.5 24.5 1.1 16 14.0 S 17 28 9 15 1008.7 1006.8 0.0
17/02:00pm 29.1 23.6 0.7 16 13.9 SSE 19 33 10 18 1008.7 1006.8 0.0
17/01:30pm 29.0 24.5 2.3 18 13.4 SW 15 24 8 13 1008.9 1007.1 0.0
17/01:00pm 28.6 22.9 2.7 19 13.1 S 22 30 12 16 1009.2 1007.4 0.0
17/12:30pm 27.5 22.4 3.2 21 12.3 SSW 19 32 10 17 1009.5 1007.7 0.0
17/12:00pm 26.9 21.9 3.4 22 11.9 SSW 19 32 10 17 1009.7 1007.9 0.0

Other Formats:

Comma delimited format used in spreadsheet applications
http://www.bom.gov.au/fwo/IDW60801/IDW60801.95634.axf

JavaScript Object Notation format (JSON) in row-major order
http://www.bom.gov.au/fwo/IDW60801/IDW60801.95634.json